Burnet, TX

6:08 AM CST on February 11, 2016 (GMT -0600)
Burnet Municipal-Craddock

Weather History for KBMQ - April, 2013

Change the Weather History Date:

Thursday, April 11, 2013

  Actual Average Record
Temperature  
Mean Temperature 55 °F -  
Max Temperature 68 °F 73 °F 84 °F (2014)
Min Temperature 44 °F 52 °F 39 °F (1997)
Degree Days  
Heating Degree Days 10    
Growing Degree Days 5 (Base 50)    
Moisture  
Dew Point 35 °F    
Average Humidity 50    
Maximum Humidity 71    
Minimum Humidity 32    
Precipitation  
Precipitation 0.00 in - - ()
Sea Level Pressure  
Sea Level Pressure 29.90 in    
Wind  
Wind Speed 8 mph (North)    
Max Wind Speed 14 mph    
Max Gust Speed 21 mph    
Visibility 10 miles    
Events      
Averages and records for this station are not official NWS values.
T = Trace of Precipitation, MM = Missing Value Source: NWS Daily Summary

Daily Weather History Graph

Daily Weather History Graph

Search for Another Location

Airport or City:

Trip Planner

Search our weather history database for the weather conditions in past years. The results will help you decide how hot, cold, wet, or windy it might be!

Date:

Astronomy

Apr. 11, 2013 Rise Set
Actual Time 7:09 AM CDT 7:58 PM CDT
Civil Twilight 6:45 AM CDT 8:23 PM CDT
Nautical Twilight 6:16 AM CDT 8:52 PM CDT
Astronomical Twilight 5:46 AM CDT 9:21 PM CDT
Moon 7:47 AM CDT 9:26 PM CDT
Length of Visible Light 13h 38m
Length of Day
12h 48m
New Moon, 2% of the Moon is Illuminated
Apr 11
New Moon
Apr 18
First Quarter
Apr 25
Full
May 2
Last Quarter
May 9
New

Hourly Weather History & Observations

Time (CDT) Temp. Windchill Dew Point Humidity Pressure Visibility Wind Dir Wind Speed Gust Speed Precip Events Conditions
12:53 AM 45.0 °F 40.1 °F 36.0 °F 71% 30.00 in 10.0 mi NNW 9.2 mph - N/A   Clear
1:53 AM 46.0 °F 40.2 °F 35.1 °F 66% 29.97 in 10.0 mi NNW 12.7 mph - N/A   Clear
2:53 AM 46.0 °F 39.9 °F 34.0 °F 63% 29.93 in 10.0 mi NNW 13.8 mph - N/A   Overcast
3:53 AM 46.0 °F 41.0 °F 33.1 °F 61% 29.93 in 10.0 mi NNE 10.4 mph - 0.00 in   Overcast
4:53 AM 46.0 °F 41.4 °F 30.9 °F 56% 29.94 in 10.0 mi NW 9.2 mph - 0.00 in   Overcast
5:53 AM 46.0 °F 41.9 °F 30.9 °F 56% 29.91 in 10.0 mi North 8.1 mph - N/A   Mostly Cloudy
6:53 AM 44.1 °F 41.5 °F 30.9 °F 60% 29.94 in 10.0 mi North 4.6 mph - N/A   Clear
7:53 AM 45.0 °F 40.1 °F 30.0 °F 56% 29.96 in 10.0 mi NW 9.2 mph - N/A   Clear
8:53 AM 46.9 °F - 30.0 °F 52% 29.98 in 10.0 mi North 10.4 mph 20.7 mph N/A   Clear
10:53 AM 52.0 °F - 32.0 °F 47% 29.98 in 10.0 mi North 6.9 mph - N/A   Clear
12:53 PM 57.0 °F - 32.0 °F 39% 29.93 in 10.0 mi Calm Calm - N/A   Clear
1:53 PM 61.0 °F - 33.1 °F 35% 29.89 in 10.0 mi Variable 4.6 mph - N/A   Clear
2:53 PM 63.0 °F - 36.0 °F 37% 29.86 in 10.0 mi Variable 4.6 mph - N/A   Clear
3:53 PM 64.0 °F - 35.1 °F 34% 29.83 in 10.0 mi Calm Calm - N/A   Clear
4:53 PM 66.0 °F - 37.0 °F 34% 29.81 in 10.0 mi Variable 3.5 mph - N/A   Clear
5:53 PM 66.9 °F - 36.0 °F 32% 29.80 in 10.0 mi South 3.5 mph - N/A   Clear
6:53 PM 66.0 °F - 37.9 °F 36% 29.80 in 10.0 mi ENE 8.1 mph - N/A   Clear
7:53 PM 62.1 °F - 39.0 °F 43% 29.82 in 10.0 mi ENE 6.9 mph - N/A   Clear
8:53 PM 57.9 °F - 41.0 °F 53% 29.84 in 10.0 mi ESE 4.6 mph - N/A   Clear
9:53 PM 55.9 °F - 39.9 °F 55% 29.86 in 10.0 mi Calm Calm - N/A   Clear
10:53 PM 54.0 °F - 41.0 °F 62% 29.89 in 10.0 mi Calm Calm - N/A   Clear
11:53 PM 53.1 °F - 39.9 °F 61% 29.91 in 10.0 mi Calm Calm - N/A   Clear